Simultaneous Nadir Overpasses (SNOs) Predictions

Prediction of SNOs between GOES-16 and NOAA-20 Satellite Orbit:

Table of predicted SNOs for the next 14.0 days since TLE Epoch: 9/10/2022
Index Date Time (GOES-16) GOES-16 Lat,Lon NOAA-20 Lat,Lon Distance(km) Time Diff (sec)
1 09/10/2022 06:17:04 0.04, -75.19 -0.33, -73.42 200.89 80
2 09/11/2022 18:39:01 -0.04, -75.20 -0.84, -78.73 403.24 80
3 09/12/2022 18:22:58 -0.04, -75.21 0.21, -74.21 113.79 80
4 09/14/2022 06:44:46 0.03, -75.22 0.97, -79.49 485.87 80
5 09/15/2022 06:23:21 0.04, -75.23 -0.03, -74.96 31.29 80
6 09/17/2022 18:26:34 -0.03, -75.26 -0.14, -75.74 54.69 80
7 09/18/2022 18:10:30 -0.03, -75.27 0.86, -71.20 462.79 80
8 09/20/2022 06:32:18 0.02, -75.29 0.31, -76.48 136.08 80
9 09/21/2022 06:10:55 0.01, -75.31 -0.75, -71.96 381.67 80
10 09/22/2022 18:32:52 -0.01, -75.33 -0.41, -77.27 220.67 80
11 09/23/2022 18:16:47 -0.00, -75.35 0.59, -72.74 297.67 80
